Retour au catalogue

CO-55

CUTE-1

ActifRadio amateurSSO
NORAD 27844·PAYLOAD·🇯🇵 Japan

Lancé Jun 30, 2003 depuis Plesetsk Cosmodrome

Loading…

Prochains Passages (prochaines 24 heures)

TLE

FraisSource: Space-Track

Époque: Sep 14, 2026, 11:04 UTC

1 27844U 03031E   26257.46130458  .00000192  00000-0  10189-3 0  9999
2 27844  98.6770 264.9125 0008427 289.0249  71.0017 14.24381067204387

Suivez CO-55 en temps réel avec AllMySat

Download on the App Store